sat.trackr.live / text

‹ back to catalog

STARLINK-5345

NORAD 56517 · 2023-065Q

PAYLOAD ACTIVE UNKNOWN

§ Identity

Operator
Country
US
Launch date
2023-05-14
Launch site
AFETR
Launch vehicle
Mass (kg)
RCS (m²)

Purposes: comms

External: N2YO · Heavens-Above · Gunter

§ Orbital elements

Epoch: 2026-09-20T04:22:16.407840Z

Period
94.27 min
Inclination
43.0019°
Eccentricity
0.0000498
Mean motion
15.27577916 rev/d
Perigee alt
482.7 km
Apogee alt
483.4 km
Semi-major
6,861.2 km
B*
-2.0343e-5
RAAN
194.1865°
Arg perigee
232.2119°
Mean anomaly
127.8688°
Rev number
18,634

§ Raw data

STARLINK-53451 56517U 23065Q   26263.18213435 -.00000821  00000+0 -20343-4 0  99942 56517  43.0019 194.1865 0000498 232.2119 127.8688 15.27577916186340

JSON: /api/v1/satellites/56517 · /tle

For live sub-satellite position, see the globe view (requires WebGL).

§ Visibility from observer

Set your observer location to see the next 7 days of passes ≥ 10°. The values pass through the URL so the page stays shareable.

No JS? Fill the form by hand. The geolocation button needs JavaScript.